When you browse on this site, cookies collect data to enhance your experience and personalize the content and advertising you see.
Visit our Privacy Policy to learn more. By continuing to use the site, you agree to this use of cookies and data.
  • In Lithuania
  • List of Countries
  • For 7 days
  • Water Temperature
  • Satellite Maps
  • Weather Map
  • Weather Widgets
  • user-avatar
    Login

    Hourly Weather Salta

    Today, 25 May, Saturday

    Time Temperature Precipitation Wind Pressure Humidity
    00:00 +9°C° 0 mm 1 mps 650 mmHg 50%
    01:00 +9°C° 0 mm 1 mps 650 mmHg 50%
    02:00 +9°C° 0 mm 1 mps 650 mmHg 49%
    03:00 +8°C° 0 mm 1 mps 649 mmHg 49%
    04:00 +8°C° 0 mm 1 mps 649 mmHg 49%
    05:00 +7°C° 0 mm 2 mps 649 mmHg 49%
    06:00 +8°C° 0 mm 2 mps 649 mmHg 48%
    07:00 +9°C° 0 mm 2 mps 649 mmHg 47%
    08:00 +10°C° 0 mm 2 mps 650 mmHg 46%
    09:00 +14°C° 0 mm 2 mps 650 mmHg 42%
    10:00 +16°C° 0 mm 2 mps 650 mmHg 39%
    11:00 +19°C° 0 mm 2 mps 651 mmHg 36%
    12:00 +20°C° 0 mm 2 mps 650 mmHg 35%
    13:00 +21°C° 0 mm 2 mps 650 mmHg 34%
    14:00 +23°C° 0 mm 2 mps 649 mmHg 33%
    15:00 +20°C° 0 mm 2 mps 649 mmHg 35%
    16:00 +19°C° 0 mm 2 mps 648 mmHg 37%
    17:00 +18°C° 0 mm 2 mps 648 mmHg 40%
    18:00 +16°C° 0 mm 2 mps 648 mmHg 44%
    19:00 +14°C° 0 mm 2 mps 648 mmHg 48%
    20:00 +12°C° 0 mm 2 mps 648 mmHg 52%
    21:00 +10°C° 0 mm 2 mps 648 mmHg 53%
    22:00 +10°C° 0 mm 2 mps 648 mmHg 54%
    23:00 +9°C° 0 mm 2 mps 648 mmHg 55%

    Tomorrow, 26 May, Sunday

    Time Temperature Precipitation Wind Pressure Humidity
    00:00 +9°C° 0 mm 2 mps 648 mmHg 53%
    01:00 +9°C° 0 mm 2 mps 648 mmHg 52%
    02:00 +9°C° 0 mm 2 mps 648 mmHg 51%
    03:00 +9°C° 0 mm 2 mps 647 mmHg 49%
    04:00 +9°C° 0 mm 2 mps 647 mmHg 48%
    05:00 +10°C° 0 mm 2 mps 647 mmHg 46%
    06:00 +12°C° 0 mm 2 mps 648 mmHg 43%
    07:00 +13°C° 0 mm 2 mps 648 mmHg 41%
    08:00 +14°C° 0 mm 2 mps 649 mmHg 38%
    09:00 +17°C° 0 mm 2 mps 650 mmHg 34%
    10:00 +21°C° 0 mm 2 mps 651 mmHg 30%
    11:00 +26°C° 0 mm 1 mps 651 mmHg 26%
    12:00 +27°C° 0 mm 2 mps 651 mmHg 24%
    13:00 +27°C° 0 mm 2 mps 650 mmHg 23%
    14:00 +28°C° 0 mm 3 mps 650 mmHg 22%
    15:00 +26°C° 0 mm 2 mps 650 mmHg 25%
    16:00 +24°C° 0 mm 2 mps 649 mmHg 29%
    17:00 +21°C° 0 mm 2 mps 649 mmHg 32%
    18:00 +19°C° 0 mm 2 mps 649 mmHg 40%
    19:00 +16°C° 0 mm 2 mps 649 mmHg 48%
    20:00 +14°C° 0 mm 2 mps 649 mmHg 56%
    21:00 +13°C° 0 mm 2 mps 649 mmHg 58%
    22:00 +13°C° 0 mm 2 mps 649 mmHg 59%
    23:00 +12°C° 0 mm 2 mps 649 mmHg 61%

    Day after tomorrow, 27 May, Monday

    Time Temperature Precipitation Wind Pressure Humidity
    00:00 +12°C° 0 mm 2 mps 649 mmHg 61%
    01:00 +12°C° 0 mm 2 mps 649 mmHg 61%
    02:00 +10°C° 0 mm 2 mps 649 mmHg 61%
    03:00 +10°C° 0 mm 2 mps 649 mmHg 60%
    04:00 +10°C° 0 mm 2 mps 648 mmHg 59%
    05:00 +10°C° 0 mm 2 mps 648 mmHg 58%
    06:00 +12°C° 0 mm 2 mps 649 mmHg 56%
    07:00 +12°C° 0 mm 2 mps 649 mmHg 55%
    08:00 +13°C° 0 mm 2 mps 650 mmHg 54%
    09:00 +15°C° 0 mm 2 mps 650 mmHg 51%
    10:00 +18°C° 0 mm 2 mps 651 mmHg 48%
    11:00 +20°C° 0 mm 2 mps 651 mmHg 45%
    12:00 +21°C° 0 mm 3 mps 651 mmHg 42%
    13:00 +21°C° 0 mm 3 mps 650 mmHg 39%
    14:00 +22°C° 0 mm 3 mps 649 mmHg 37%
    15:00 +21°C° 0 mm 3 mps 649 mmHg 41%
    16:00 +20°C° 0 mm 2 mps 648 mmHg 46%
    17:00 +18°C° 0 mm 2 mps 648 mmHg 51%
    18:00 +16°C° 0 mm 2 mps 648 mmHg 58%
    19:00 +15°C° 0 mm 1 mps 648 mmHg 66%
    20:00 +13°C° 0 mm 1 mps 648 mmHg 74%
    21:00 +13°C° 0 mm 1 mps 648 mmHg 75%
    22:00 +13°C° 0 mm 1 mps 648 mmHg 76%
    23:00 +13°C° 0 mm 1 mps 649 mmHg 77%

    28 May, Tuesday

    Time Temperature Precipitation Wind Pressure Humidity
    00:00 +13°C° 0 mm 1 mps 648 mmHg 77%
    01:00 +13°C° 0 mm 1 mps 648 mmHg 77%
    02:00 +13°C° 0 mm 1 mps 647 mmHg 77%
    03:00 +12°C° 0 mm 1 mps 647 mmHg 77%
    04:00 +12°C° 0 mm 1 mps 647 mmHg 76%
    05:00 +12°C° 0 mm 1 mps 647 mmHg 75%
    06:00 +13°C° 0 mm 1 mps 647 mmHg 73%
    07:00 +13°C° 0 mm 1 mps 648 mmHg 70%
    08:00 +14°C° 0 mm 1 mps 648 mmHg 68%
    09:00 +15°C° 0 mm 1 mps 649 mmHg 65%
    10:00 +17°C° 0 mm 2 mps 649 mmHg 62%
    11:00 +19°C° 0 mm 2 mps 649 mmHg 59%
    12:00 +20°C° 0 mm 2 mps 649 mmHg 53%
    13:00 +21°C° 0 mm 2 mps 649 mmHg 47%
    14:00 +23°C° 0 mm 2 mps 648 mmHg 42%
    15:00 +21°C° 0 mm 2 mps 648 mmHg 45%
    16:00 +20°C° 0 mm 2 mps 648 mmHg 49%
    17:00 +19°C° 0 mm 2 mps 648 mmHg 53%
    18:00 +17°C° 0 mm 2 mps 649 mmHg 62%
    19:00 +15°C° 0 mm 1 mps 649 mmHg 71%
    20:00 +14°C° 0 mm 1 mps 649 mmHg 80%
    21:00 +14°C° 0 mm 1 mps 650 mmHg 80%
    22:00 +14°C° 0 mm 1 mps 650 mmHg 80%
    23:00 +14°C° 0 mm 1 mps 650 mmHg 80%

    29 May, Wednesday

    Time Temperature Precipitation Wind Pressure Humidity
    00:00 +14°C° 0 mm 1 mps 650 mmHg 80%
    01:00 +13°C° 0 mm 1 mps 650 mmHg 79%
    02:00 +13°C° 0 mm 1 mps 650 mmHg 79%
    03:00 +13°C° 0 mm 1 mps 649 mmHg 79%
    04:00 +13°C° 0 mm 1 mps 649 mmHg 78%
    05:00 +13°C° 0 mm 1 mps 649 mmHg 78%
    06:00 +13°C° 0 mm 1 mps 649 mmHg 75%
    07:00 +14°C° 0 mm 1 mps 650 mmHg 73%
    08:00 +14°C° 0 mm 1 mps 650 mmHg 71%
    09:00 +16°C° 0 mm 2 mps 650 mmHg 69%
    10:00 +17°C° 0 mm 2 mps 650 mmHg 67%
    11:00 +19°C° 0 mm 2 mps 651 mmHg 66%
    12:00 +19°C° 0.1 mm 2 mps 650 mmHg 65%
    13:00 +19°C° 0.1 mm 2 mps 649 mmHg 64%
    14:00 +20°C° 0.1 mm 2 mps 648 mmHg 64%
    15:00 +19°C° 0 mm 2 mps 648 mmHg 65%
    16:00 +19°C° 0 mm 2 mps 647 mmHg 67%
    17:00 +18°C° 0 mm 2 mps 647 mmHg 68%
    18:00 +17°C° 0 mm 2 mps 648 mmHg 69%
    19:00 +16°C° 0 mm 2 mps 648 mmHg 70%
    20:00 +15°C° 0 mm 2 mps 648 mmHg 71%
    21:00 +15°C° 0 mm 2 mps 648 mmHg 71%
    22:00 +14°C° 0 mm 2 mps 648 mmHg 71%
    23:00 +14°C° 0 mm 2 mps 649 mmHg 71%

    30 May, Thursday

    Time Temperature Precipitation Wind Pressure Humidity
    00:00 +14°C° 0 mm 2 mps 648 mmHg 71%
    01:00 +14°C° 0 mm 2 mps 648 mmHg 71%
    02:00 +13°C° 0 mm 2 mps 648 mmHg 71%
    03:00 +13°C° 0 mm 1 mps 648 mmHg 71%
    04:00 +13°C° 0 mm 1 mps 648 mmHg 71%
    05:00 +13°C° 0 mm 1 mps 648 mmHg 72%
    06:00 +13°C° 0 mm 1 mps 649 mmHg 71%
    07:00 +14°C° 0 mm 1 mps 650 mmHg 71%
    08:00 +14°C° 0 mm 1 mps 650 mmHg 70%
    09:00 +15°C° 0 mm 2 mps 650 mmHg 69%
    10:00 +16°C° 0 mm 2 mps 650 mmHg 67%
    11:00 +17°C° 0 mm 3 mps 650 mmHg 66%
    12:00 +18°C° 0 mm 3 mps 650 mmHg 66%
    13:00 +18°C° 0 mm 3 mps 649 mmHg 66%
    14:00 +18°C° 0 mm 3 mps 648 mmHg 66%
    15:00 +17°C° 0.1 mm 3 mps 648 mmHg 70%
    16:00 +16°C° 0.1 mm 3 mps 648 mmHg 74%
    17:00 +15°C° 0.1 mm 2 mps 648 mmHg 79%
    18:00 +15°C° 0.1 mm 2 mps 648 mmHg 80%
    19:00 +14°C° 0.1 mm 2 mps 648 mmHg 82%
    20:00 +13°C° 0.1 mm 2 mps 649 mmHg 84%
    21:00 +13°C° 0.1 mm 2 mps 649 mmHg 83%
    22:00 +13°C° 0.1 mm 2 mps 649 mmHg 81%
    23:00 +13°C° 0.1 mm 2 mps 649 mmHg 80%
    Show more